• In Russia
  • List of Countries
  • For 7 days
  • Water Temperature
  • Satellite Maps
  • Weather Map
  • Weather Widgets
  • user-avatar
    Login

    Hourly Weather Gesice

    Today, 20 February, Wednesday

    Time Temperature Precipitation Wind Pressure Humidity
    00:00 +4°C° 0 mm 4 mps 751 mmHg 83%
    01:00 +3°C° 0 mm 4 mps 751 mmHg 81%
    02:00 +3°C° 0 mm 4 mps 751 mmHg 82%
    03:00 +3°C° 0 mm 4 mps 751 mmHg 83%
    04:00 +2°C° 0 mm 5 mps 751 mmHg 84%
    05:00 +1°C° 0 mm 5 mps 751 mmHg 85%
    06:00 +1°C° 0 mm 5 mps 752 mmHg 86%
    07:00 +1°C° 0 mm 4 mps 752 mmHg 88%
    08:00 +2°C° 0 mm 5 mps 752 mmHg 81%
    09:00 +4°C° 0 mm 6 mps 753 mmHg 74%
    10:00 +5°C° 0 mm 6 mps 753 mmHg 67%
    11:00 +7°C° 0 mm 6 mps 753 mmHg 63%
    12:00 +7°C° 0 mm 6 mps 753 mmHg 59%
    13:00 +8°C° 0 mm 6 mps 754 mmHg 54%
    14:00 +8°C° 0 mm 6 mps 754 mmHg 56%
    15:00 +8°C° 0 mm 5 mps 754 mmHg 57%
    16:00 +7°C° 0 mm 5 mps 754 mmHg 59%
    17:00 +6°C° 0 mm 4 mps 754 mmHg 64%
    18:00 +5°C° 0 mm 4 mps 754 mmHg 69%
    19:00 +4°C° 0 mm 3 mps 755 mmHg 75%
    20:00 +4°C° 0 mm 3 mps 755 mmHg 77%
    21:00 +3°C° 0 mm 3 mps 755 mmHg 79%
    22:00 +3°C° 0 mm 3 mps 756 mmHg 82%
    23:00 +3°C° 0 mm 3 mps 756 mmHg 81%

    Tomorrow, 21 February, Thursday

    Time Temperature Precipitation Wind Pressure Humidity
    00:00 +3°C° 0 mm 3 mps 756 mmHg 80%
    01:00 +4°C° 0 mm 3 mps 756 mmHg 80%
    02:00 +3°C° 0 mm 3 mps 756 mmHg 80%
    03:00 +3°C° 0 mm 3 mps 756 mmHg 80%
    04:00 +3°C° 0 mm 3 mps 756 mmHg 80%
    05:00 +2°C° 0 mm 3 mps 756 mmHg 82%
    06:00 +2°C° 0 mm 3 mps 756 mmHg 83%
    07:00 +2°C° 0 mm 3 mps 756 mmHg 84%
    08:00 +3°C° 0 mm 3 mps 756 mmHg 81%
    09:00 +4°C° 0 mm 3 mps 756 mmHg 77%
    10:00 +5°C° 0 mm 4 mps 756 mmHg 74%
    11:00 +6°C° 0.1 mm 4 mps 756 mmHg 71%
    12:00 +7°C° 0.1 mm 4 mps 755 mmHg 68%
    13:00 +8°C° 0.1 mm 5 mps 755 mmHg 65%
    14:00 +7°C° 0.3 mm 5 mps 755 mmHg 69%
    15:00 +7°C° 0.3 mm 5 mps 755 mmHg 72%
    16:00 +6°C° 0.3 mm 5 mps 754 mmHg 76%
    17:00 +6°C° 0.3 mm 5 mps 754 mmHg 77%
    18:00 +6°C° 0.3 mm 4 mps 754 mmHg 79%
    19:00 +5°C° 0.3 mm 4 mps 754 mmHg 80%
    20:00 +6°C° 0.4 mm 5 mps 754 mmHg 82%
    21:00 +6°C° 0.4 mm 5 mps 754 mmHg 84%
    22:00 +5°C° 0.4 mm 6 mps 753 mmHg 86%
    23:00 +5°C° 0.4 mm 6 mps 753 mmHg 87%

    Day after tomorrow, 22 February, Friday

    Time Temperature Precipitation Wind Pressure Humidity
    00:00 +5°C° 0.4 mm 7 mps 753 mmHg 89%
    01:00 +5°C° 0.4 mm 7 mps 753 mmHg 90%
    02:00 +5°C° 1 mm 7 mps 753 mmHg 90%
    03:00 +6°C° 1 mm 7 mps 753 mmHg 91%
    04:00 +6°C° 1 mm 7 mps 753 mmHg 91%
    05:00 +5°C° 0.3 mm 7 mps 754 mmHg 90%
    06:00 +5°C° 0.3 mm 7 mps 755 mmHg 88%
    07:00 +4°C° 0.3 mm 7 mps 756 mmHg 87%
    08:00 +3°C° 0 mm 7 mps 757 mmHg 82%
    09:00 +2°C° 0 mm 7 mps 758 mmHg 78%
    10:00 +1°C° 0 mm 6 mps 759 mmHg 73%
    11:00 +1°C° 0 mm 6 mps 760 mmHg 69%
    12:00 +1°C° 0 mm 6 mps 761 mmHg 65%
    13:00 +1°C° 0 mm 5 mps 762 mmHg 60%
    14:00 +1°C° 0 mm 5 mps 762 mmHg 57%
    15:00 +1°C° 0 mm 5 mps 763 mmHg 54%
    16:00 0°C° 0 mm 5 mps 763 mmHg 51%
    17:00 -1°C° 0 mm 4 mps 764 mmHg 54%
    18:00 -2°C° 0 mm 4 mps 765 mmHg 57%
    19:00 -1°C° 0 mm 3 mps 766 mmHg 60%
    20:00 -2°C° 0 mm 3 mps 766 mmHg 59%
    21:00 -2°C° 0 mm 3 mps 767 mmHg 58%
    22:00 -2°C° 0 mm 3 mps 767 mmHg 57%
    23:00 -4°C° 0 mm 3 mps 768 mmHg 56%

    23 February, Saturday

    Time Temperature Precipitation Wind Pressure Humidity
    00:00 -4°C° 0 mm 3 mps 768 mmHg 55%
    01:00 -4°C° 0 mm 3 mps 768 mmHg 53%
    02:00 -3°C° 0 mm 2 mps 768 mmHg 52%
    03:00 -3°C° 0 mm 2 mps 768 mmHg 52%
    04:00 -4°C° 0 mm 2 mps 768 mmHg 51%
    05:00 -4°C° 0 mm 2 mps 768 mmHg 50%
    06:00 -2°C° 0 mm 1 mps 768 mmHg 50%
    07:00 -2°C° 0 mm 1 mps 769 mmHg 49%
    08:00 -3°C° 0 mm 2 mps 769 mmHg 44%
    09:00 -3°C° 0 mm 2 mps 769 mmHg 39%
    10:00 -2°C° 0 mm 2 mps 769 mmHg 34%
    11:00 -1°C° 0 mm 2 mps 769 mmHg 31%
    12:00 +1°C° 0 mm 1 mps 769 mmHg 29%
    13:00 +2°C° 0 mm 1 mps 769 mmHg 26%
    14:00 +2°C° 0 mm 1 mps 768 mmHg 27%
    15:00 +2°C° 0 mm 1 mps 768 mmHg 28%
    16:00 +2°C° 0 mm 1 mps 768 mmHg 28%
    17:00 +1°C° 0 mm 1 mps 768 mmHg 31%
    18:00 +1°C° 0 mm 1 mps 768 mmHg 35%
    19:00 0°C° 0 mm 1 mps 768 mmHg 38%
    20:00 -1°C° 0 mm 1 mps 768 mmHg 39%
    21:00 -1°C° 0 mm 1 mps 768 mmHg 39%
    22:00 -1°C° 0 mm 1 mps 768 mmHg 40%
    23:00 -1°C° 0 mm 1 mps 768 mmHg 40%

    24 February, Sunday

    Time Temperature Precipitation Wind Pressure Humidity
    00:00 -1°C° 0 mm 1 mps 767 mmHg 40%
    01:00 -1°C° 0 mm 1 mps 767 mmHg 40%
    02:00 -1°C° 0 mm 1 mps 767 mmHg 39%
    03:00 -2°C° 0 mm 0 mps 767 mmHg 39%
    04:00 -2°C° 0 mm 0 mps 767 mmHg 38%
    05:00 -2°C° 0 mm 0 mps 767 mmHg 37%
    06:00 -1°C° 0 mm 0 mps 766 mmHg 36%
    07:00 -1°C° 0 mm 0 mps 766 mmHg 36%
    08:00 0°C° 0 mm 0 mps 766 mmHg 32%
    09:00 0°C° 0 mm 0 mps 766 mmHg 29%
    10:00 +1°C° 0 mm 0 mps 766 mmHg 26%
    11:00 +3°C° 0 mm 1 mps 766 mmHg 26%
    12:00 +4°C° 0 mm 1 mps 766 mmHg 26%
    13:00 +5°C° 0 mm 1 mps 765 mmHg 26%
    14:00 +5°C° 0 mm 1 mps 765 mmHg 31%
    15:00 +5°C° 0 mm 1 mps 765 mmHg 35%
    16:00 +5°C° 0 mm 1 mps 765 mmHg 40%
    17:00 +4°C° 0 mm 1 mps 765 mmHg 42%
    18:00 +3°C° 0 mm 1 mps 765 mmHg 43%
    19:00 +2°C° 0 mm 1 mps 765 mmHg 45%
    20:00 +1°C° 0 mm 1 mps 765 mmHg 47%
    21:00 +1°C° 0 mm 1 mps 765 mmHg 49%
    22:00 +1°C° 0 mm 1 mps 765 mmHg 51%
    23:00 -1°C° 0 mm 2 mps 765 mmHg 53%

    25 February, Monday

    Time Temperature Precipitation Wind Pressure Humidity
    00:00 -1°C° 0 mm 2 mps 765 mmHg 55%
    01:00 -1°C° 0 mm 2 mps 765 mmHg 57%
    02:00 -1°C° 0 mm 2 mps 765 mmHg 59%
    03:00 -1°C° 0 mm 2 mps 765 mmHg 62%
    04:00 -1°C° 0 mm 2 mps 764 mmHg 65%
    05:00 -1°C° 0 mm 3 mps 764 mmHg 67%
    06:00 -1°C° 0 mm 3 mps 764 mmHg 69%
    07:00 -1°C° 0 mm 3 mps 764 mmHg 71%
    08:00 +1°C° 0 mm 3 mps 764 mmHg 68%
    09:00 +1°C° 0 mm 4 mps 765 mmHg 65%
    10:00 +2°C° 0 mm 5 mps 765 mmHg 62%
    11:00 +3°C° 0 mm 5 mps 765 mmHg 64%
    12:00 +5°C° 0 mm 5 mps 764 mmHg 66%
    13:00 +6°C° 0 mm 4 mps 764 mmHg 67%
    14:00 +6°C° 0 mm 4 mps 764 mmHg 70%
    15:00 +6°C° 0 mm 4 mps 764 mmHg 72%
    16:00 +6°C° 0 mm 4 mps 764 mmHg 75%
    17:00 +5°C° 0 mm 3 mps 764 mmHg 79%
    18:00 +3°C° 0 mm 3 mps 765 mmHg 84%
    19:00 +3°C° 0 mm 2 mps 765 mmHg 88%
    20:00 +3°C° 0 mm 2 mps 765 mmHg 88%
    21:00 +2°C° 0 mm 2 mps 765 mmHg 88%
    22:00 +2°C° 0 mm 2 mps 765 mmHg 88%
    23:00 +1°C° 0 mm 2 mps 765 mmHg 88%
    Show more